Home   Weather   Hermosillo   Past weeks

Flag for Mexico Past Weather in Hermosillo, Sonora, Mexico — Yesterday and Last 2 Weeks

Now
50 °F

Clear.


Feels Like: 49 °F
Forecast: 46 / 75 °F
Wind: 3 mph from East

Location: Hermosillo Airport

Current Time: Jan 23, 2017 at 5:55:42 am

Latest Report: Jan 23, 2017 at 4:43 am


Visibility: 10 mi

Pressure: 30.02 "Hg

Humidity: 76%

Dew Point: 43 °F

Location of HermosilloLocation

Past Weather in Hermosillo — Graph

°F

Hermosillo Temperature Yesterday

Maximum temperature yesterday: 75 °F (at 2:49 pm)
Minimum temperature yesterday: 46 °F (at 3:41 am)
Average temperature yesterday: 60 °F

High & Low Weather Summary for the Past Weeks

 TemperatureHumidityPressure
High95 °F (Jan 8, 2:52 pm)100% (Jan 14, 6:40 pm)30.22 "Hg (Jan 14, 6:40 pm)
Low46 °F (Jan 16, 6:44 am)14% (Jan 8, 2:52 pm)29.76 "Hg (Jan 21, 3:54 am)
Average63 °F60%30.02 "Hg
* Reported Jan 8 2:41 am — Jan 23 2:40 am, Hermosillo, Weather by CustomWeather, © 2017

Note: Actual official high and low records may vary slightly from our data, if they occured in-between our weather recording intervals... More about our weather records

Advertising

Hermosillo Weather History for the Previous 24 Hours

Scroll right to see more
 ConditionsComfort  
Time TempWeatherWind HumidityBarometerVisibility
2:40 am
Mon, Jan 23
52 °FClear.No wind82%30.06 "Hg10 mi
1:40 am54 °FClear.No wind82%30.06 "Hg10 mi
12:50 am54 °FClear.3 mph77%30.09 "Hg10 mi
11:52 pm
Sun, Jan 22
55 °FClear.No wind72%30.10 "Hg10 mi
10:52 pm63 °FClear.No wind56%30.10 "Hg10 mi
9:40 pm59 °FClear.3 mph63%30.09 "Hg10 mi
8:41 pm59 °FClear.No wind63%30.09 "Hg10 mi
7:41 pm64 °FClear.No wind49%30.07 "Hg10 mi
6:47 pm66 °FPassing clouds.No wind37%30.09 "Hg10 mi
5:40 pm73 °FPassing clouds.No wind27%30.09 "Hg10 mi
4:41 pm75 °FPassing clouds.No wind24%30.05 "Hg10 mi
3:42 pm75 °FPassing clouds.No wind22%30.08 "Hg10 mi
2:49 pm75 °FPassing clouds.No wind25%30.09 "Hg10 mi
1:41 pm72 °FSunny.No wind33%30.12 "Hg10 mi
12:40 pm70 °FSunny.6 mph38%30.16 "Hg10 mi
11:40 am68 °FSunny.7 mph43%30.19 "Hg10 mi
10:40 am64 °FPassing clouds.6 mph49%30.21 "Hg10 mi
9:40 am61 °FPassing clouds.8 mph52%30.22 "Hg10 mi
8:40 am57 °FPassing clouds.6 mph67%30.20 "Hg10 mi
7:40 am50 °FPassing clouds.6 mph82%30.17 "Hg10 mi
6:40 am48 °FClear.5 mph94%30.18 "Hg10 mi
5:43 am50 °FClear.5 mph88%30.16 "Hg10 mi
Weather by CustomWeather, © 2017

See weather overviewHow to use our weather pages